IZ1HKE-13 Weather Reports


Display with metric or nautical units.
time (UTC)temp
F
wind
direction
speed
MPH
gust
MPH
rain 1hr
in
rain 24hr
in
rain mn
in
humidity
%
barometer
mb
20260507215855 49 127 3.0 3.0 0.00 0.00 0.00 97 1021.1
20260507214727 50 125 0.0 0.0 0.00 0.00 0.00 97 1020.9
20260507213547 50 125 0.0 0.0 0.00 0.00 0.00 96 1020.9
20260507212420 50 125 0.0 0.0 0.00 0.00 0.00 96 1020.9
20260507211252 51 125 0.0 0.0 0.00 0.00 0.00 95 1020.8
20260507210125 51 126 0.0 0.0 0.00 0.00 0.00 93 1020.8
20260507204957 52 126 0.0 0.0 0.00 0.00 0.00 92 1020.8
20260507203830 53 124 0.0 0.0 0.00 0.00 0.00 90 1020.7
20260507202702 53 174 0.0 0.0 0.00 0.00 0.00 90 1020.7
20260507201535 53 174 0.0 2.0 0.00 0.00 0.00 91 1020.6
20260507200407 54 134 0.0 1.0 0.00 0.00 0.00 88 1020.4
20260507195240 55 134 0.0 2.0 0.00 0.00 0.00 84 1020.1
20260507194112 55 146 2.0 3.0 0.00 0.00 0.00 85 1020.0
20260507192945 55 168 2.0 3.0 0.00 0.00 0.00 86 1020.0
20260507191817 56 133 2.0 2.0 0.00 0.00 0.00 83 1019.9
20260507190650 58 126 0.0 2.0 0.00 0.00 0.00 76 1019.8
20260507185522 58 168 3.0 4.0 0.00 0.00 0.00 78 1019.7
20260507184355 59 186 0.0 3.0 0.00 0.00 0.00 77 1019.7
20260507183227 60 156 3.0 3.0 0.00 0.00 0.00 74 1019.6
20260507182059 60 151 0.0 6.0 0.00 0.00 0.00 73 1019.5
20260507180931 61 204 3.0 8.0 0.00 0.00 0.00 69 1019.4
20260507175804 62 180 4.0 9.0 0.00 0.00 0.00 67 1019.4
20260507174636 63 157 2.0 9.0 0.00 0.00 0.00 66 1019.3
20260507173508 64 197 0.0 7.0 0.00 0.00 0.00 65 1019.3
20260507172341 65 192 6.0 7.0 0.00 0.00 0.00 62 1019.2
20260507171213 65 229 3.0 9.0 0.00 0.00 0.00 64 1019.2
20260507170046 66 181 3.0 9.0 0.00 0.00 0.00 60 1019.0
20260507164918 66 123 7.0 9.0 0.00 0.00 0.00 58 1018.9
20260507163751 66 168 7.0 11.0 0.00 0.00 0.00 55 1018.9
20260507162623 67 126 7.0 10.0 0.00 0.00 0.00 57 1018.9
20260507161455 67 186 8.0 8.0 0.00 0.00 0.00 56 1018.8
20260507160328 67 138 3.0 13.0 0.00 0.00 0.00 58 1018.8
20260507155200 67 114 5.0 13.0 0.00 0.00 0.00 60 1018.9
20260507154032 67 144 8.0 13.0 0.00 0.00 0.00 58 1018.8
20260507152904 67 234 10.0 14.0 0.00 0.00 0.00 58 1018.8
20260507151736 68 150 8.0 17.0 0.00 0.00 0.00 58 1018.8
20260507150609 68 103 11.0 14.0 0.00 0.00 0.00 58 1018.8
20260507145441 68 204 13.0 15.0 0.00 0.00 0.00 59 1018.9
20260507144314 68 197 7.0 9.0 0.00 0.00 0.00 59 1018.8
20260507143146 69 166 5.0 17.0 0.00 0.00 0.00 56 1018.9
20260507142018 69 128 5.0 9.0 0.00 0.00 0.00 56 1018.9
20260507140850 69 186 3.0 11.0 0.00 0.00 0.00 53 1019.0
20260507135723 68 132 3.0 9.0 0.00 0.00 0.00 55 1019.1
20260507134555 71 188 4.0 9.0 0.00 0.00 0.00 51 1019.1
20260507133427 70 178 4.0 11.0 0.00 0.00 0.00 49 1019.1
20260507132300 70 187 3.0 9.0 0.00 0.00 0.00 50 1019.2
20260507131132 72 108 7.0 11.0 0.00 0.00 0.00 48 1019.4
20260507130005 70 204 5.0 11.0 0.00 0.00 0.00 52 1019.5
20260507124837 69 121 2.0 8.0 0.00 0.00 0.00 54 1019.6
20260507123710 68 206 8.0 12.0 0.00 0.00 0.00 55 1019.7
20260507122543 68 132 3.0 13.0 0.00 0.00 0.00 54 1019.6
20260507121415 68 126 6.0 13.0 0.00 0.00 0.00 56 1019.7
20260507120247 68 230 8.0 11.0 0.00 0.00 0.00 53 1019.8
20260507115120 67 165 11.0 13.0 0.00 0.00 0.00 57 1019.8
20260507113953 67 204 11.0 15.0 0.00 0.00 0.00 56 1019.9
20260507112825 71 138 5.0 11.0 0.00 0.00 0.00 50 1019.9
20260507111658 72 213 9.0 9.0 0.00 0.00 0.00 48 1019.9
20260507110530 71 132 3.0 4.0 0.00 0.00 0.00 48 1020.1
20260507105403 74 210 5.0 5.0 0.00 0.00 0.00 50 1020.1
20260507104210 69 144 4.0 5.0 0.00 0.00 0.00 56 1020.2
20260507103043 69 193 2.0 6.0 0.00 0.00 0.00 56 1020.4
20260507101915 66 192 6.0 11.0 0.00 0.00 0.00 60 1020.5
20260507100747 65 195 8.0 10.0 0.00 0.00 0.00 62 1020.6
20260507095620 67 132 4.0 6.0 0.00 0.00 0.00 63 1020.6
20260507094452 66 201 1.0 3.0 0.00 0.00 0.00 65 1020.6
20260507093324 63 126 0.0 5.0 0.00 0.00 0.00 70 1020.7
20260507092157 63 207 0.0 5.0 0.00 0.00 0.00 69 1020.6
20260507091029 62 198 6.0 7.0 0.00 0.00 0.00 74 1020.6
20260507085902 61 190 5.0 7.0 0.00 0.00 0.00 77 1020.6
20260507084734 62 246 2.0 3.0 0.00 0.00 0.00 76 1020.5
20260507083607 62 342 2.0 3.0 0.00 0.00 0.00 77 1020.5
20260507082440 61 207 0.0 1.0 0.00 0.00 0.00 77 1020.5
20260507081312 61 342 0.0 0.0 0.00 0.00 0.00 78 1020.4
20260507080145 60 344 0.0 1.0 0.00 0.00 0.00 79 1020.3
20260507075017 60 345 0.0 3.0 0.00 0.00 0.00 80 1020.2
20260507073850 60 333 0.0 4.0 0.00 0.00 0.00 82 1020.1
20260507072722 60 174 0.0 0.0 0.00 0.00 0.00 84 1020.3
20260507071555 60 209 0.0 0.0 0.00 0.00 0.00 82 1020.2
20260507070427 59 323 0.0 2.0 0.00 0.00 0.00 85 1020.0
20260507065300 58 123 1.0 3.0 0.00 0.00 0.00 86 1019.9
20260507064132 57 126 0.0 0.0 0.00 0.00 0.00 87 1019.9
20260507063005 54 125 0.0 0.0 0.00 0.00 0.00 92 1019.8
20260507061837 53 126 0.0 0.0 0.00 0.00 0.00 93 1019.6
20260507060710 53 126 0.0 0.0 0.00 0.00 0.00 95 1019.6
20260507055542 52 126 0.0 0.0 0.00 0.00 0.00 95 1019.6
20260507054415 52 121 0.0 0.0 0.00 0.00 0.00 95 1019.5
20260507053247 51 122 0.0 0.0 0.00 0.00 0.00 96 1019.3
20260507052120 51 128 0.0 0.0 0.00 0.00 0.00 97 1019.2
20260507050952 50 126 0.0 0.0 0.00 0.00 0.00 97 1019.2
20260507045825 50 84 0.0 0.0 0.00 0.00 0.00 98 1018.9
20260507044657 50 130 0.0 0.0 0.00 0.00 0.00 99 1018.9
20260507043530 49 124 0.0 0.0 0.00 0.00 0.00 99 1018.8
20260507042402 49 121 0.0 0.0 0.00 0.00 0.00 99 1018.6
20260507041235 49 124 0.0 0.0 0.00 0.00 0.00 98 1018.5
20260507040107 49 69 0.0 0.0 0.00 0.00 0.00 98 1018.4
20260507034927 49 113 0.0 0.0 0.00 0.00 0.00 98 1018.3
20260507033800 50 143 0.0 0.0 0.00 0.00 0.00 98 1018.2
20260507032633 50 144 0.0 3.0 0.00 0.00 0.00 97 1018.1
20260507031505 50 165 0.0 0.0 0.00 0.00 0.00 96 1018.0
20260507030337 51 171 0.0 0.0 0.00 0.00 0.00 95 1018.1
20260507025210 53 318 0.0 4.0 0.00 0.00 0.00 93 1018.0
20260507024042 51 306 0.0 2.0 0.00 0.00 0.00 94 1018.0
20260507022915 52 127 0.0 4.0 0.00 0.00 0.00 94 1017.7
20260507021748 52 84 2.0 5.0 0.00 0.00 0.00 94 1017.6
20260507020620 51 140 3.0 3.0 0.00 0.00 0.00 95 1017.6
20260507015452 51 191 0.0 4.0 0.00 0.00 0.00 95 1017.5
20260507014325 52 125 0.0 0.0 0.00 0.00 0.00 95 1017.4
20260507013157 53 48 0.0 0.0 0.00 0.00 0.00 92 1017.5
20260507012030 53 132 0.0 0.0 0.00 0.00 0.00 94 1017.4
20260507010902 53 132 0.0 0.0 0.00 0.00 0.00 93 1017.5
20260507005735 53 132 0.0 0.0 0.00 0.00 0.00 92 1017.7
20260507004607 53 132 0.0 2.0 0.00 0.00 0.00 92 1017.8
20260507003440 54 131 0.0 0.0 0.00 0.00 0.00 90 1017.8
20260507002312 55 339 0.0 0.0 0.00 0.00 0.00 89 1017.7
20260507001145 56 18 2.0 3.0 0.00 0.00 0.00 85 1017.7
20260507000017 55 342 2.0 2.0 0.00 0.00 0.00 84 1017.5
20260506234850 55 350 0.0 4.0 0.00 0.00 0.00 84 1017.5
20260506233722 55 348 3.0 5.0 0.00 0.00 0.00 85 1017.5
20260506232555 56 357 0.0 1.0 0.00 0.00 0.00 83 1017.4
20260506231427 57 204 0.0 3.0 0.00 0.00 0.00 82 1017.2
20260506230300 56 72 0.0 3.0 0.00 0.00 0.00 82 1017.1
20260506225132 57 354 0.0 2.0 0.00 0.00 0.30 81 1016.9
20260506224005 58 354 0.0 4.0 0.00 0.00 0.30 77 1016.8
20260506222837 58 348 3.0 4.0 0.00 0.00 0.30 77 1016.8
20260506221710 60 79 0.0 4.0 0.00 0.00 0.30 74 1016.7